| time (UTC) | temp F | wind direction | speed MPH | gust MPH | rain 1hr in | rain 24hr in | rain mn in | humidity % | barometer mb |
| 20260831214541 | 47 | 333 | 3.0 | 11.0 | 0.00 | 0.09 | 0.09 | 91 | 992.5 |
| 20260831213037 | 46 | 345 | 6.0 | 13.0 | 0.00 | 0.09 | 0.09 | 96 | 992.6 |
| 20260831211542 | 46 | 300 | 7.0 | 18.0 | 0.00 | 0.09 | 0.09 | 96 | 992.3 |
| 20260831210034 | 45 | 300 | 9.0 | 15.0 | 0.00 | 0.09 | 0.09 | 96 | 992.4 |
| 20260831204530 | 45 | 286 | 7.0 | 15.0 | 0.00 | 0.09 | 0.09 | 96 | 992.6 |
| 20260831203026 | 44 | 305 | 8.0 | 13.0 | 0.00 | 0.09 | 0.09 | 96 | 992.7 |
| 20260831201522 | 43 | 270 | 6.0 | 14.0 | 0.01 | 0.09 | 0.09 | 96 | 993.1 |
| 20260831200020 | 43 | 301 | 3.0 | 8.0 | 0.01 | 0.09 | 0.09 | 96 | 993.2 |
| 20260831194518 | 43 | 271 | 4.0 | 8.0 | 0.01 | 0.09 | 0.09 | 96 | 993.4 |
| 20260831193029 | 43 | 293 | 4.0 | 8.0 | 0.01 | 0.09 | 0.09 | 96 | 993.6 |
| 20260831191514 | 43 | 295 | 3.0 | 7.0 | 0.01 | 0.08 | 0.08 | 95 | 993.8 |
| 20260831190029 | 43 | 270 | 2.0 | 6.0 | 0.01 | 0.08 | 0.08 | 96 | 993.9 |
| 20260831184509 | 43 | 273 | 3.0 | 6.0 | 0.01 | 0.08 | 0.08 | 95 | 994.2 |
| 20260831183014 | 42 | 271 | 1.0 | 4.0 | 0.01 | 0.08 | 0.08 | 95 | 994.3 |
| 20260831181507 | 42 | 19 | 1.0 | 4.0 | 0.00 | 0.07 | 0.07 | 95 | 994.5 |
| 20260831180005 | 42 | 20 | 0.0 | 3.0 | 0.00 | 0.07 | 0.07 | 95 | 994.7 |
| 20260831174502 | 42 | 19 | 0.0 | 3.0 | 0.00 | 0.07 | 0.07 | 96 | 994.8 |
| 20260831173101 | 42 | 19 | 0.0 | 0.0 | 0.00 | 0.07 | 0.07 | 95 | 994.8 |
| 20260831171558 | 42 | 19 | 0.0 | 3.0 | 0.00 | 0.07 | 0.07 | 95 | 994.9 |
| 20260831170059 | 41 | 49 | 0.0 | 0.0 | 0.00 | 0.07 | 0.07 | 95 | 995.1 |
| 20260831164557 | 41 | 49 | 0.0 | 0.0 | 0.00 | 0.07 | 0.07 | 95 | 995.1 |
| 20260831163052 | 41 | 49 | 0.0 | 1.0 | 0.00 | 0.07 | 0.07 | 95 | 995.3 |
| 20260831161548 | 41 | 49 | 0.0 | 2.0 | 0.00 | 0.07 | 0.07 | 95 | 995.5 |
| 20260831160047 | 41 | 49 | 1.0 | 3.0 | 0.00 | 0.07 | 0.07 | 95 | 995.7 |
| 20260831154546 | 41 | 54 | 1.0 | 3.0 | 0.00 | 0.07 | 0.07 | 95 | 995.8 |
| 20260831153052 | 41 | 215 | 0.0 | 3.0 | 0.00 | 0.07 | 0.07 | 94 | 996.0 |
| 20260831151544 | 41 | 215 | 0.0 | 2.0 | 0.01 | 0.07 | 0.07 | 94 | 996.1 |
| 20260831150033 | 40 | 215 | 1.0 | 3.0 | 0.01 | 0.07 | 0.07 | 94 | 996.2 |
| 20260831144530 | 40 | 215 | 0.0 | 0.0 | 0.01 | 0.07 | 0.07 | 94 | 996.5 |
| 20260831143035 | 40 | 215 | 0.0 | 2.0 | 0.01 | 0.07 | 0.07 | 93 | 996.7 |
| 20260831141525 | 40 | 215 | 0.0 | 0.0 | 0.01 | 0.06 | 0.06 | 93 | 996.9 |
| 20260831140026 | 41 | 215 | 0.0 | 1.0 | 0.01 | 0.06 | 0.06 | 93 | 997.1 |
| 20260831134521 | 41 | 215 | 1.0 | 2.0 | 0.01 | 0.06 | 0.06 | 93 | 997.2 |
| 20260831133018 | 41 | 215 | 1.0 | 3.0 | 0.01 | 0.06 | 0.06 | 93 | 997.4 |
| 20260831131517 | 41 | 215 | 1.0 | 3.0 | 0.00 | 0.05 | 0.05 | 93 | 997.8 |
| 20260831130011 | 41 | 238 | 0.0 | 3.0 | 0.01 | 0.05 | 0.05 | 93 | 998.0 |
| 20260831124508 | 41 | 238 | 1.0 | 3.0 | 0.01 | 0.05 | 0.05 | 93 | 998.2 |
| 20260831123006 | 41 | 221 | 1.0 | 3.0 | 0.01 | 0.05 | 0.05 | 93 | 998.4 |
| 20260831121501 | 42 | 221 | 1.0 | 2.0 | 0.02 | 0.05 | 0.05 | 93 | 998.5 |
| 20260831120059 | 42 | 221 | 0.0 | 2.0 | 0.01 | 0.04 | 0.04 | 93 | 998.6 |
| 20260831114558 | 42 | 221 | 0.0 | 3.0 | 0.01 | 0.04 | 0.04 | 93 | 998.9 |
| 20260831113105 | 42 | 233 | 0.0 | 4.0 | 0.01 | 0.04 | 0.04 | 93 | 999.0 |
| 20260831111554 | 43 | 233 | 1.0 | 3.0 | 0.01 | 0.03 | 0.03 | 93 | 999.3 |
| 20260831110050 | 43 | 229 | 1.0 | 7.0 | 0.01 | 0.03 | 0.03 | 93 | 999.4 |
| 20260831104556 | 43 | 267 | 2.0 | 5.0 | 0.01 | 0.03 | 0.03 | 93 | 999.6 |
| 20260831103046 | 44 | 243 | 3.0 | 6.0 | 0.02 | 0.03 | 0.03 | 93 | 999.8 |
| 20260831101546 | 44 | 221 | 2.0 | 6.0 | 0.01 | 0.02 | 0.02 | 93 | 999.9 |
| 20260831100044 | 44 | 268 | 2.0 | 6.0 | 0.01 | 0.02 | 0.02 | 92 | 1000.1 |
| 20260831094543 | 44 | 253 | 5.0 | 10.0 | 0.01 | 0.02 | 0.02 | 91 | 1000.2 |
| 20260831093052 | 44 | 172 | 3.0 | 5.0 | 0.00 | 0.01 | 0.01 | 90 | 1000.3 |
| 20260831091542 | 44 | 270 | 0.0 | 2.0 | 0.00 | 0.01 | 0.01 | 90 | 1000.4 |
| 20260831090030 | 45 | 270 | 2.0 | 4.0 | 0.01 | 0.01 | 0.01 | 89 | 1000.5 |
| 20260831084606 | 45 | 270 | 1.0 | 5.0 | 0.01 | 0.01 | 0.01 | 89 | 1000.5 |
| 20260831083023 | 46 | 269 | 2.0 | 5.0 | 0.01 | 0.01 | 0.01 | 86 | 1000.7 |
| 20260831081520 | 46 | 184 | 1.0 | 4.0 | 0.01 | 0.01 | 0.01 | 84 | 1000.9 |
| 20260831080034 | 47 | 47 | 1.0 | 5.0 | 0.00 | 0.00 | 0.00 | 84 | 1000.9 |
| 20260831074532 | 47 | 107 | 3.0 | 8.0 | 0.00 | 0.00 | 0.00 | 82 | 1001.0 |
| 20260831073016 | 48 | 62 | 1.0 | 4.0 | 0.00 | 0.00 | 0.00 | 79 | 1001.2 |
| 20260831071514 | 48 | 65 | 4.0 | 7.0 | 0.00 | 0.00 | 0.00 | 74 | 1001.0 |
| 20260831070013 | 48 | 355 | 3.0 | 6.0 | 0.00 | 0.00 | 0.00 | 72 | 1001.1 |
| 20260831064512 | 49 | 14 | 2.0 | 6.0 | 0.00 | 0.00 | 0.00 | 67 | 1001.1 |
| 20260831063011 | 49 | 18 | 2.0 | 3.0 | 0.00 | 0.00 | 0.00 | 72 | 1001.3 |
| 20260831061510 | 49 | 140 | 6.0 | 12.0 | 0.00 | 0.00 | 0.00 | 68 | 1001.2 |
| 20260831060009 | 49 | 74 | 2.0 | 4.0 | 0.00 | 0.00 | 0.00 | 70 | 1001.4 |
| 20260831054511 | 49 | 15 | 1.0 | 4.0 | 0.00 | 0.00 | 0.00 | 67 | 1001.5 |
| 20260831053008 | 50 | 15 | 3.0 | 6.0 | 0.00 | 0.00 | 0.00 | 68 | 1001.6 |
| 20260831051519 | 51 | 42 | 1.0 | 4.0 | 0.00 | 0.00 | 0.00 | 63 | 1001.8 |
| 20260831050004 | 52 | 101 | 1.0 | 3.0 | 0.00 | 0.00 | 0.00 | 62 | 1001.9 |
| 20260831044506 | 52 | 101 | 1.0 | 2.0 | 0.00 | 0.00 | 0.00 | 60 | 1002.1 |
| 20260831043001 | 53 | 101 | 0.0 | 0.0 | 0.00 | 0.00 | 0.00 | 60 | 1002.3 |
| 20260831041600 | 53 | 101 | 0.0 | 3.0 | 0.00 | 0.00 | 0.00 | 61 | 1002.4 |
| 20260831040057 | 54 | 216 | 0.0 | 2.0 | 0.00 | 0.00 | 0.00 | 56 | 1002.6 |
| 20260831034607 | 54 | 216 | 0.0 | 0.0 | 0.00 | 0.00 | 0.00 | 49 | 1002.8 |
| 20260831033058 | 55 | 216 | 1.0 | 2.0 | 0.00 | 0.00 | 0.00 | 54 | 1003.1 |
| 20260831031552 | 56 | 216 | 0.0 | 0.0 | 0.00 | 0.00 | 0.00 | 50 | 1003.3 |
| 20260831030053 | 56 | 216 | 0.0 | 0.0 | 0.00 | 0.00 | 0.00 | 47 | 1003.5 |
| 20260831024556 | 57 | 216 | 0.0 | 0.0 | 0.00 | 0.00 | 0.00 | 46 | 1003.7 |
| 20260831023048 | 57 | 216 | 0.0 | 1.0 | 0.00 | 0.00 | 0.00 | 50 | 1004.1 |
| 20260831021544 | 57 | 216 | 0.0 | 0.0 | 0.00 | 0.00 | 0.00 | 46 | 1004.3 |
| 20260831020042 | 57 | 216 | 0.0 | 0.0 | 0.00 | 0.00 | 0.00 | 43 | 1004.5 |
| 20260831014542 | 58 | 216 | 0.0 | 2.0 | 0.00 | 0.00 | 0.00 | 44 | 1004.6 |
| 20260831013040 | 58 | 200 | 0.0 | 1.0 | 0.00 | 0.00 | 0.00 | 41 | 1004.8 |
| 20260831011535 | 59 | 91 | 0.0 | 4.0 | 0.00 | 0.00 | 0.00 | 43 | 1004.9 |
| 20260831010033 | 59 | 88 | 2.0 | 3.0 | 0.00 | 0.00 | 0.00 | 40 | 1005.2 |
| 20260831004531 | 59 | 91 | 2.0 | 6.0 | 0.00 | 0.00 | 0.00 | 40 | 1005.4 |
| 20260831003029 | 59 | 73 | 1.0 | 4.0 | 0.00 | 0.00 | 0.00 | 43 | 1005.7 |
| 20260831001526 | 59 | 106 | 2.0 | 4.0 | 0.00 | 0.00 | 0.00 | 42 | 1006.0 |
| 20260831000025 | 60 | 133 | 4.0 | 6.0 | 0.00 | 0.00 | 0.00 | 41 | 1006.1 |
| 20260830234521 | 61 | 134 | 4.0 | 8.0 | 0.00 | 0.00 | 0.00 | 40 | 1006.4 |
| 20260830233020 | 60 | 113 | 4.0 | 8.0 | 0.00 | 0.00 | 0.00 | 42 | 1006.6 |
| 20260830231518 | 60 | 97 | 5.0 | 8.0 | 0.00 | 0.00 | 0.00 | 43 | 1006.8 |
| 20260830230012 | 60 | 144 | 4.0 | 7.0 | 0.00 | 0.00 | 0.00 | 45 | 1007.0 |
| 20260830224511 | 59 | 136 | 4.0 | 7.0 | 0.00 | 0.00 | 0.00 | 46 | 1007.1 |
| 20260830223010 | 59 | 137 | 3.0 | 8.0 | 0.00 | 0.00 | 0.00 | 49 | 1007.2 |
| 20260830221509 | 59 | 207 | 1.0 | 7.0 | 0.00 | 0.00 | 0.00 | 46 | 1007.7 |
| 20260830220004 | 58 | 102 | 3.0 | 9.0 | 0.00 | 0.00 | 0.00 | 45 | 1007.8 |